Regional Weather Roundup
Issued by NWS

Home | Current Version | Previous Version | Text Only | Print | Product List | Glossary On
Versions: 1 2 3 4 5 6 7 8 9 10 11 12 13 14 15 16 17 18 19 20 21 22 23 24 25 26 27 28 29 30 31 32 33 34 35 36 37 38 39 40 41 42 43 44 45 46 47 48 49 50
000
ASUS43 KIND 061009
RWRIN

WEATHER ROUNDUP FOR INDIANA
NATIONAL WEATHER SERVICE INDIANAPOLIS IN
500 AM EST SAT FEB 06 2016

NOTE: "FAIR" INDICATES FEW OR NO CLOUDS BELOW 12,000 FEET WITH NO
SIGNIFICANT WEATHER AND/OR OBSTRUCTIONS TO VISIBILITY.

* - STATION DOES NOT REPORT WEATHER SUCH AS PRECIPITATION OR FOG.

+ - STATION NOT QUALITY CONTROLLED BY THE NATIONAL WEATHER SERVICE.
    USE DATA WITH CAUTION...ESPECIALLY DEWPOINT AND RELATIVE
    HUMIDITY OBSERVATIONS.

INZ001>003-010>013-019-020-061100-
NORTHWEST INDIANA

CITY           SKY/WX    TMP DP  RH WIND       PRES   REMARKS
LA PORTE +     CLOUDY    24  24 100 CALM      30.28F FOG
MICHIGAN CITY+ CLOUDY    25  25 100 S5        30.30S WCI  19
MONTICELLO +   CLEAR     23  19  85 S3        30.30F
RENSSELAER +   CLEAR     23  21  93 CALM      30.31R
VALPARAISO     CLOUDY    23  21  92 S5        30.29S WCI  17

$$

LMZ046-743>745-061100-
SOUTHERN LAKE MICHIGAN

STATION/POSITION TIME  TEMP    WIND        PRES    WAVE
                       AIR SEA DIR/SP/G            HT
                 (UTC) (F)     (DEG/KT/KT) (MB)    (FT)
BURNS HARBOR     0900   26     210/  6/  9 1026.4F
MICHIGAN CITY    0900   25     170/  8/ 10   N/A

$$

INZ004-005-014>016-021>024-061100-
NORTH CENTRAL INDIANA

CITY           SKY/WX    TMP DP  RH WIND       PRES   REMARKS
GOSHEN         CLEAR     22  19  89 S5        30.29F FOG     WCI  16
LOGANSPORT +   CLEAR     23  19  86 S3        30.32S FOG
PERU/GRISSOM   CLEAR     21  19  94 S6        30.29S WCI  13
ROCHESTER +    CLEAR     27  21  80 CALM      30.30F HAZE
SOUTH BEND     CLEAR     19  18  95 SW5       30.29F FOG     WCI  12
WARSAW +       CLEAR     21  21 100 CALM      30.30S FOG

$$

INZ006>009-017-018-025>027-061100-
NORTHEAST INDIANA

CITY           SKY/WX    TMP DP  RH WIND       PRES   REMARKS
ANGOLA *+      CLEAR     21  21 100 CALM      30.27S
AUBURN +       CLEAR     23  21  93 CALM      30.31R FOG
FORT WAYNE     PTCLDY    26  24  92 SW6       30.32R FOG     WCI  19
HUNTINGTON +   CLEAR     23  20  87 CALM      30.31S FOG

$$

INZ028-029-035-036-043>045-051>053-061100-
WEST CENTRAL INDIANA

CITY           SKY/WX    TMP DP  RH WIND       PRES   REMARKS
GREENCASTLE +  CLOUDY    19  14  79 CALM      30.33S HAZE
LAFAYETTE      CLEAR     18  17  96 CALM      30.33S FOG
TERRE HAUTE    CLOUDY    22  19  89 CALM      30.34S

$$

INZ030>032-037>040-046>048-054>057-064-065-061100-
CENTRAL INDIANA

CITY           SKY/WX    TMP DP  RH WIND       PRES   REMARKS
FISHERS *+     CLOUDY    19  19 100 CALM      30.34
FRANKFORT +    CLEAR     23  22  99 CALM      30.33F
GREENWOOD *+   CLOUDY    23  23 100 CALM      30.34
INDIANAPOLIS   CLOUDY    22  18  85 SW3       30.32S
-EAGLE CREEK   CLOUDY    21  18  88 CALM      30.33R
KOKOMO *+      CLEAR     21  18  86 SW5       30.32S WCI  15
MARION +       CLOUDY    22  16  77 S3        30.32F HAZE
MT COMFORT *+  CLOUDY    21  21 100 CALM      30.33S
SHELBYVILLE    CLOUDY    24  20  84 CALM      30.33R FOG
ZIONSVILLE +   CLOUDY    21  20  95 CALM      30.33S FOG

$$

INZ033-034-041-042-049-050-058-059-061100-
EAST CENTRAL INDIANA

CITY           SKY/WX    TMP DP  RH WIND       PRES   REMARKS
MUNCIE         CLOUDY    24  20  84 CALM      30.32S

$$

INZ060-061-067>069-081>083-085>088-061100-
SOUTHWEST INDIANA

CITY           SKY/WX    TMP DP  RH WIND       PRES   REMARKS
EVANSVILLE     CLEAR     28  21  75 NE3       30.35S
HUNTINGBURG *+ CLEAR     27  21  80 SE5       30.35S WCI  21
WASHINGTON +   PTCLDY    25  24  96 CALM      30.35R FOG

$$

INZ062-063-066-070>080-084-089>092-061100-
SOUTH CENTRAL AND SOUTHEAST INDIANA

CITY           SKY/WX    TMP DP  RH WIND       PRES   REMARKS
BEDFORD +      CLOUDY    23  23 100 CALM      30.34S
BLOOMINGTON    CLOUDY    20  17  88 CALM      30.33S
MADISON *+     CLOUDY    27  25  93 CALM      30.35S
NORTH VERNON + PTCLDY   N/A N/A N/A CALM      30.34S FOG
SEYMOUR +      PTCLDY    25  23  93 CALM      30.35S FOG

$$




USA.gov is the U.S. government's official web portal to all federal, state and local government web resources and services.